Weather History for Raton, NM

Change the Weather History Date:

Wednesday, May 28, 2014

  Actual Average (KTAD) Record (KTAD)
Temperature  
Mean Temperature 63 °F 63 °F  
Max Temperature 84 °F 78 °F 93 °F (1951)
Min Temperature 46 °F 47 °F 36 °F (2012)
Degree Days  
Heating Degree Days 2 4  
Month to date heating degree days 194  
Since 1 July heating degree days 5484  
Cooling Degree Days 0 2  
Month to date cooling degree days 18  
Year to date cooling degree days 20  
Growing Degree Days 13 (Base 50)    
Moisture  
Dew Point 42 °F    
Average Humidity 47    
Maximum Humidity 79    
Minimum Humidity 21    
Precipitation  
Precipitation 0.00 in 0.06 in 0.70 in (1953)
Month to date precipitation 1.43  
Year to date precipitation 4.34  
Sea Level Pressure  
Sea Level Pressure 30.06 in    
Wind  
Wind Speed 9 mph (NE)    
Max Wind Speed 28 mph    
Max Gust Speed 34 mph    
Visibility 10 miles    
Events Rain , Thunderstorm    
T = Trace of Precipitation, MM = Missing Value Source: NWS Daily Summary

Daily Weather History Graph

Daily Weather History Graph

Search for Another Location

Airport:

Trip Planner

Search our weather history database for the weather conditions in past years. The results will help you decide how hot, cold, wet, or windy it might be!

Date:

Astronomy

May. 28, 2014 Rise Set
Actual Time 5:42 AM MDT 8:08 PM MDT
Civil Twilight 5:12 AM MDT 8:38 PM MDT
Nautical Twilight 4:35 AM MDT 9:15 PM MDT
Astronomical Twilight 3:54 AM MDT 9:56 PM MDT
Moon 5:48 AM MDT (5/28) 8:10 PM MDT (5/28)
Length of Visible Light 15h 26m
Length of Day
14h 26m
Waning Crescent, 0% of the Moon is Illuminated
May 28
Waning Crescent
May 28
New
Jun 5
First Quarter
Jun 12
Full
Jun 19
Last Quarter

Hourly Weather History & Observations

Time (MDT) Temp. Windchill Dew Point Humidity Pressure Visibility Wind Dir Wind Speed Gust Speed Precip Events Conditions
12:53 AM 55.9 °F - 42.1 °F 60% 30.01 in 10.0 mi NNW 6.9 mph - N/A   Clear
1:53 AM 51.1 °F - 41.0 °F 68% 30.02 in 10.0 mi ENE 6.9 mph - N/A   Clear
3:53 AM 48.9 °F - 41.0 °F 74% 30.01 in 10.0 mi ENE 6.9 mph - N/A   Clear
4:53 AM 48.9 °F - 41.0 °F 74% 30.02 in 10.0 mi NE 4.6 mph - N/A   Clear
5:53 AM 46.0 °F 41.4 °F 39.9 °F 79% 30.04 in 10.0 mi ENE 9.2 mph - N/A   Clear
7:53 AM 59.0 °F - 44.1 °F 58% 30.02 in 10.0 mi NE 6.9 mph - N/A   Clear
8:53 AM 68.0 °F - 43.0 °F 40% 30.02 in 10.0 mi ENE 5.8 mph - N/A   Clear
9:53 AM 75.0 °F - 39.9 °F 28% 29.99 in 10.0 mi East 5.8 mph - N/A   Clear
10:53 AM 77.0 °F - 34.0 °F 21% 29.98 in 10.0 mi Variable 3.5 mph - N/A   Clear
12:53 PM 80.1 °F - 37.9 °F 22% 29.96 in 10.0 mi North - - N/A   Clear
2:36 PM 79.0 °F - 37.0 °F 22% 30.20 in 10.0 mi South 11.5 mph - N/A Thunderstorm Mostly Cloudy
2:44 PM 78.1 °F - 36.0 °F 22% 30.21 in 10.0 mi West 13.8 mph - N/A Thunderstorm Thunderstorm
2:53 PM 72.0 °F - 39.9 °F 31% 29.99 in 10.0 mi NNW 25.3 mph 31.1 mph N/A Thunderstorm Overcast
2:58 PM 69.1 °F - 43.0 °F 39% 30.20 in 10.0 mi NNW 27.6 mph 34.5 mph 0.00 in Rain , Thunderstorm Light Thunderstorms and Rain
3:19 PM 64.0 °F - 46.9 °F 54% 30.23 in 10.0 mi North 15.0 mph 28.8 mph 0.00 in Rain , Thunderstorm Light Rain
3:33 PM 64.0 °F - 46.0 °F 52% 30.24 in 10.0 mi Variable 5.8 mph 24.2 mph 0.00 in Rain , Thunderstorm Light Thunderstorms and Rain
4:14 PM 69.1 °F - 45.0 °F 42% 30.22 in 10.0 mi ENE 18.4 mph 28.8 mph 0.00 in Rain Light Rain
5:53 PM 69.1 °F - 41.0 °F 36% 30.01 in 10.0 mi ESE 9.2 mph - 0.00 in   Clear
6:53 PM 68.0 °F - 42.1 °F 39% 30.01 in 10.0 mi South 9.2 mph - N/A   Clear
7:53 PM 64.0 °F - 44.1 °F 48% 30.01 in 10.0 mi WSW 8.1 mph - N/A   Partly Cloudy
9:53 PM 57.0 °F - 45.0 °F 64% 29.97 in 10.0 mi East 8.1 mph - N/A   Clear
10:53 PM 55.9 °F - 44.1 °F 64% 29.99 in 10.0 mi North 6.9 mph - N/A   Clear